Change the Weather History Date:

Monday, March 17, 2014

  Actual Average Record
Temperature  
Mean Temperature 43 °F 36 °F  
Max Temperature 55 °F 48 °F 73 °F (2007)
Min Temperature 30 °F 24 °F 9 °F (2002)
Degree Days  
Heating Degree Days 22 29  
Month to date heating degree days 497 544  
Since 1 July heating degree days 6378 6398  
Cooling Degree Days 0 0  
Month to date cooling degree days 0 0  
Year to date cooling degree days 0 0  
Moisture  
Dew Point 22 °F    
Average Humidity 56    
Maximum Humidity 92    
Minimum Humidity 19    
Precipitation  
Precipitation 0.19 in 0.02 in 0.24 in (2003)
Month to date precipitation 0.39 0.24  
Year to date precipitation 1.29 0.75  
Snow  
Snow 0.70 in - - ()
Month to date snowfall 2.4  
Since 1 July snowfall 51.6  
Snow Depth 1.00 in    
Sea Level Pressure  
Sea Level Pressure 29.50 in    
Wind  
Wind Speed 19 mph (WNW)    
Max Wind Speed 38 mph    
Max Gust Speed 46 mph    
Visibility 6 miles    
Events Fog , Snow    
T = Trace of Precipitation, MM = Missing Value Source: NWS Daily Summary

Daily Weather History Graph

Daily Weather History Graph

Search for Another Location

Airport or City:

Trip Planner

Search our weather history database for the weather conditions in past years. The results will help you decide how hot, cold, wet, or windy it might be!

Date:

Astronomy

Mar. 17, 2014 Rise Set
Actual Time 7:22 AM MDT 7:22 PM MDT
Civil Twilight 6:53 AM MDT 7:51 PM MDT
Nautical Twilight 6:20 AM MDT 8:24 PM MDT
Astronomical Twilight 5:47 AM MDT 8:57 PM MDT
Moon 8:45 PM MDT (3/17) 7:37 AM MDT (3/17)
Length of Visible Light 12h 57m
Length of Day
12h 00m
Full, 99% of the Moon is Illuminated
Mar 17
Full
Mar 23
Last Quarter
Mar 30
New
Apr 7
First Quarter
Apr 15
Full

Hourly Weather History & Observations

Time (MDT) Temp. Windchill Dew Point Humidity Pressure Visibility Wind Dir Wind Speed Gust Speed Precip Events Conditions
12:53 AM 39.9 °F - 16.0 °F 38% 29.82 in 10.0 mi Calm Calm - N/A   Clear
1:53 AM 30.0 °F - 17.1 °F 59% 29.81 in 10.0 mi Calm Calm - N/A   Clear
2:53 AM 34.0 °F 31.0 °F 19.0 °F 54% 29.73 in 10.0 mi South 3.5 mph - N/A   Clear
3:53 AM 37.0 °F 31.6 °F 19.0 °F 48% 29.65 in 10.0 mi SW 6.9 mph - N/A   Clear
4:53 AM 36.0 °F 29.6 °F 19.9 °F 52% 29.58 in 10.0 mi SW 8.1 mph - N/A   Clear
5:53 AM 36.0 °F 28.5 °F 19.9 °F 52% 29.54 in 10.0 mi SSW 10.4 mph - N/A   Clear
6:53 AM 39.0 °F 32.3 °F 18.0 °F 43% 29.51 in 10.0 mi SW 10.4 mph - N/A   Clear
7:53 AM 37.9 °F 30.5 °F 19.9 °F 48% 29.47 in 10.0 mi SSW 11.5 mph - N/A   Clear
8:53 AM 44.1 °F 39.0 °F 19.9 °F 38% 29.41 in 10.0 mi WSW 9.2 mph - N/A   Clear
9:53 AM 44.1 °F 37.4 °F 19.9 °F 38% 29.41 in 10.0 mi WNW 13.8 mph - N/A   Clear
10:53 AM 53.1 °F - 18.0 °F 25% 29.36 in 10.0 mi WSW 31.1 mph 38.0 mph N/A   Clear
11:53 AM 53.1 °F - 17.1 °F 24% 29.33 in 10.0 mi West 25.3 mph 34.5 mph N/A   Clear
12:53 PM 48.9 °F - 21.0 °F 33% 29.33 in 10.0 mi WSW 32.2 mph 41.4 mph N/A   Mostly Cloudy
1:53 PM 52.0 °F - 21.0 °F 30% 29.34 in 10.0 mi West 31.1 mph 38.0 mph N/A   Clear
2:53 PM 52.0 °F - 10.0 °F 19% 29.32 in 10.0 mi West 32.2 mph 44.9 mph N/A   Clear
3:53 PM 48.9 °F - 8.1 °F 19% 29.32 in 10.0 mi West 27.6 mph 39.1 mph N/A   Clear
4:53 PM 45.0 °F 37.1 °F 7.0 °F 21% 29.34 in 10.0 mi WSW 19.6 mph 33.4 mph N/A   Mostly Cloudy
5:23 PM 44.1 °F 35.0 °F 8.1 °F 23% 29.38 in 10.0 mi NW 24.2 mph 31.1 mph N/A   Overcast
5:53 PM 43.0 °F 31.7 °F 15.1 °F 32% 29.38 in 10.0 mi NW 35.7 mph 43.7 mph N/A   Overcast
6:32 PM 33.1 °F 20.1 °F 28.9 °F 85% 29.45 in 2.5 mi NNW 25.3 mph 36.8 mph 0.00 in Snow Light Snow
6:38 PM 32.0 °F 18.9 °F 30.0 °F 92% 29.46 in 1.0 mi NNW 24.2 mph 34.5 mph 0.00 in Snow Light Snow
6:46 PM 32.0 °F 19.5 °F 30.0 °F 92% 29.47 in 0.5 mi North 21.9 mph 29.9 mph 0.01 in Fog , Snow Snow
6:53 PM 30.9 °F 19.8 °F 30.0 °F 96% 29.49 in 0.2 mi NNW 16.1 mph 26.5 mph 0.01 in Fog , Snow Heavy Snow
7:03 PM 30.9 °F 18.1 °F 30.0 °F 96% 29.48 in 0.2 mi NW 21.9 mph 26.5 mph 0.01 in Fog , Snow Heavy Snow
7:10 PM 30.0 °F 16.6 °F 28.9 °F 96% 29.49 in 0.2 mi WNW 23.0 mph 31.1 mph 0.02 in Fog , Snow Heavy Snow
7:22 PM 30.0 °F 16.9 °F 28.9 °F 96% 29.49 in 0.5 mi WNW 21.9 mph - 0.09 in Fog , Snow Snow
7:51 PM 30.2 °F 18.9 °F 28.4 °F 93% 29.50 in 1.0 mi NW 16.1 mph - 0.12 in Snow Light Snow
7:53 PM 30.9 °F 19.4 °F 28.9 °F 92% 29.52 in 1.0 mi NW 17.3 mph - 0.12 in Snow Light Snow
8:08 PM 30.9 °F 20.2 °F 30.0 °F 96% 29.52 in 1.0 mi NNW 15.0 mph - 0.02 in Snow Light Snow
8:15 PM 30.9 °F 20.2 °F 30.0 °F 96% 29.53 in 0.8 mi North 15.0 mph - 0.02 in Snow Light Snow
8:38 PM 30.0 °F 15.4 °F 28.0 °F 92% 29.53 in 1.0 mi North 27.6 mph 40.3 mph 0.06 in Snow Light Snow
8:46 PM 30.0 °F 15.7 °F 28.0 °F 92% 29.54 in 1.2 mi North 26.5 mph 40.3 mph 0.06 in Snow Light Snow
8:53 PM 30.0 °F 16.0 °F 28.0 °F 92% 29.54 in 2.0 mi North 25.3 mph 36.8 mph 0.06 in Snow Light Snow
9:15 PM 30.0 °F 16.9 °F 28.0 °F 92% 29.57 in 1.5 mi North 21.9 mph 31.1 mph 0.00 in Snow Light Snow
9:21 PM 30.0 °F 16.9 °F 28.0 °F 92% 29.57 in 2.0 mi North 21.9 mph 29.9 mph 0.00 in Snow Light Snow
9:30 PM 30.0 °F 16.6 °F 27.0 °F 88% 29.57 in 3.0 mi NNW 23.0 mph 29.9 mph 0.00 in Snow Light Snow
9:53 PM 30.9 °F 16.9 °F 26.1 °F 82% 29.57 in 10.0 mi NNW 26.5 mph 35.7 mph 0.00 in   Overcast
10:53 PM 32.0 °F 18.9 °F 23.0 °F 69% 29.57 in 10.0 mi WNW 24.2 mph 31.1 mph N/A   Overcast
11:53 PM 30.9 °F 19.1 °F 21.9 °F 69% 29.62 in 10.0 mi NNW 18.4 mph 29.9 mph N/A   Overcast